Location: El Águila
(10.4167°N, 66.7167°W)
Time: 05:48:00
(UTC+00:00)

Cosmos 968 Rocket - Pass Details

Date: 02 October 2022
Orbit: 741 x 769 km, 74.0° (Epoch: 04 December)

Event Time Altitude Azimuth Distance (km) Brightness Sun altitude
Rises 22:30:57 0° 180° (S) 3,227 6.8 -4.3°
Reaches altitude 10° 22:33:24 10° 174° (S) 2,303 6.0 -4.9°
Maximum altitude 22:38:23 46° 101° (ESE) 1,026 3.8 -6.2°
Drops below altitude 10° 22:43:22 10° 29° (NNE) 2,301 5.7 -7.4°
Sets 22:45:49 0° 23° (NNE) 3,225 6.5 -8.0°
